Regional Weather Roundup
Issued by NWS

Home | Current Version | Previous Version | Graphics & Text | Print | Product List | Glossary On
Versions: 1 2 3 4 5 6 7 8 9 10 11 12 13 14 15 16 17 18 19 20 21 22 23 24 25 26 27 28 29 30 31 32 33 34 35 36 37 38 39 40 41 42 43 44 45 46 47 48 49 50
035
ASUS43 KLMK 221002
RWRKY
KENTUCKY REGIONAL WEATHER ROUNDUP
NATIONAL WEATHER SERVICE LOUISVILLE KY
600 AM EDT FRI MAY 22 2015

NOTE "FAIR" INDICATES FEW OR NO CLOUDS BELOW 12,000 FEET
WITH NO SIGNIFICANT WEATHER AND/OR OBSTRUCTIONS TO VISIBILITY.

KYZ001>023-026-027-061>063-070>075-221100-
WESTERN AND SOUTH CENTRAL KENTUCKY

CITY           SKY/WX    TMP DP  RH WIND       PRES   REMARKS
PADUCAH        CLEAR     45  42  89 CALM      30.24S
HENDERSON      CLEAR     46  43  87 W3        30.23R
OWENSBORO      CLEAR     45  44  96 CALM      30.23R
HOPKINSVILLE   CLEAR     45  43  93 CALM      30.24R
BOWLING GREEN  FOG       43  40  89 CALM      30.24R VSB 1
GLASGOW        NOT AVBL
$$

KYZ024-025-028>034-038-045-046-053-221100-
NORTH CENTRAL KENTUCKY

CITY           SKY/WX    TMP DP  RH WIND       PRES   REMARKS
LOUISVILLE/SDF CLEAR     49  43  80 S3        30.20R
LOUISVILLE/LOU CLEAR     45  42  89 CALM      30.21R
FORT KNOX      CLEAR     42  41  97 CALM      30.20R
$$

KYZ035>037-039>044-047>052-055>060-089>105-221100-
NORTHEAST KENTUCKY

CITY           SKY/WX    TMP DP  RH WIND       PRES   REMARKS
LEXINGTON      CLEAR     43  41  93 SW6       30.20R
COVINGTON      CLEAR     45  42  89 SW6       30.17R
FRANKFORT      CLEAR     44  40  85 CALM      30.19R
$$

KYZ054-064>069-076>088-106>120-221100-
SOUTHEAST KENTUCKY

CITY           SKY/WX    TMP DP  RH WIND       PRES   REMARKS
JACKSON        FOG       45  43  93 CALM      30.21R VSB 1/4
LONDON         FOG       42  38  85 CALM      30.22R VSB 1/2
SOMERSET       NOT AVBL
MIDDLESBORO    CLEAR     43  43  99 CALM      30.23R
MONTICELLO     FOG       43  43 100 CALM      30.26R VSB<1/4
$$




USA.gov is the U.S. government's official web portal to all federal, state and local government web resources and services.